KMCI

Kansas City International Airport

Airport
ICAO code
KMCI
IATA Code
MCI
Summary
ICAO Region
NAM
ICAO Territory
Location

Kansas City, Missouri

Serving
Kansas City
Elevation
1026 ft
Coordinates
39° 17' 51" N , 94° 42' 50" W
KCC
Airport BS
Bird Strike
Airport LOS
Parallel Runway Operation
Metar
KMCI 181728Z 01018G32KT 1 3/4SM R19R/3000VP6000FT VCTS +RA BR BKN011 OVC018CB 09/08 A2999 RMK AO2 PK WND 01034/1715 TWR VIS 3 LTG DSNT W TSB01E22 TS VC NE MOV E P0029 T00890083

International airport serving Kansas City, Missouri, USA. The airport is located 14 nm northwest of the city.

Runways

Designator Length Width Surface Rops
01R/19L 2896 46 CON Yes/Yes
9/27 2896 46 ASP Yes/Yes
01L/19R 3292 46 CON Yes/Yes

Airport map

Aerial View

SKYbrary Partners:

Safety knowledge contributed by: